Wind_Speed
25 25 24 23 23 23 23 23 19 18 20 18 14 13 14 15 14 9 6 7 2 12 11 17 7 4 4 1 3 2 3 0 3 4 7 7 4 3 2 3 3 6 6 5 30
26 26 25 25 25 25 24 21 19 19 16 14 13 12 13 13 10 9 10 7 7 16 17 13 6 7 1 2 1 3 3 4 4 3 7 11 6 6 2 2 4 3 4 23 32
29 29 29 28 28 28 26 23 18 16 13 11 12 11 10 9 3 5 5 6 16 18 9 5 12 6 2 2 3 3 4 4 5 7 4 6 10 2 2 3 8 10 11 18 24
32 33 33 32 33 29 28 21 16 13 11 13 12 8 5 2 3 2 8 5 19 16 9 6 4 5 3 3 3 1 7 5 6 3 3 5 4 7 6 11 9 14 19 20 21
33 34 35 35 33 32 25 19 18 18 18 15 6 2 1 1 7 2 2 13 17 17 8 5 4 4 2 3 2 4 3 4 8 9 7 4 10 5 12 12 11 5 19 22 21
36 37 38 37 36 30 23 23 22 15 6 2 4 5 2 0 1 3 7 12 8 10 7 6 6 5 1 2 2 4 4 7 7 10 4 3 8 3 5 1 6 11 16 18 21
38 40 40 39 39 26 25 25 11 4 3 5 7 5 3 6 1 1 9 3 7 6 4 5 3 3 2 4 3 5 7 8 6 2 3 3 8 5 8 10 7 9 11 14 17
39 40 41 40 34 25 26 12 8 7 7 7 5 2 5 2 5 5 10 4 5 5 2 2 5 2 2 2 7 5 5 5 4 3 2 3 7 12 16 10 11 5 9 13 16
40 42 42 42 29 24 22 6 7 7 6 6 2 1 4 4 4 4 11 4 3 3 3 1 3 3 5 3 5 6 1 2 8 2 5 5 7 9 14 11 12 5 7 9 11
41 42 42 42 26 21 16 4 5 4 3 1 2 1 2 1 3 4 7 10 2 2 4 5 5 3 4 5 3 4 3 5 5 1 7 5 5 8 10 13 11 11 8 6 10
41 43 42 43 20 17 18 3 5 4 3 2 4 3 5 9 6 3 4 7 3 6 2 3 4 5 8 6 3 3 2 5 6 5 2 3 5 6 6 9 14 12 11 9 11
41 42 42 44 14 11 17 6 3 6 7 4 6 6 10 2 3 1 10 4 3 3 2 5 3 6 5 5 6 4 2 6 7 2 2 7 3 1 6 5 4 9 12 11 10
41 41 42 42 11 10 6 5 13 4 1 7 5 4 2 8 4 5 7 3 3 4 3 5 4 3 3 1 1 2 4 4 6 6 3 3 3 1 3 3 4 6 7 9 10
40 41 42 41 4 13 3 11 17 6 4 5 3 2 3 3 3 5 8 5 1 3 8 4 4 2 5 1 3 2 5 5 4 3 3 3 4 3 3 5 4 6 9 12 16
39 39 41 27 11 4 7 16 8 2 4 2 1 1 1 4 3 2 4 3 5 4 5 5 2 2 4 3 1 4 3 2 1 3 3 5 4 6 6 8 10 8 9 10 11
38 37 39 16 10 4 13 14 1 5 0 3 4 5 3 1 3 2 2 5 2 4 3 4 2 3 2 2 2 5 3 7 4 3 3 4 4 5 2 3 6 6 9 9 12
37 37 28 14 3 9 15 2 4 3 3 5 3 5 2 4 5 2 2 5 1 4 5 5 3 5 4 5 5 8 6 4 5 5 4 2 1 7 4 4 2 7 9 10 9
37 33 21 8 10 10 5 5 2 1 2 2 4 2 4 6 4 7 3 3 6 5 3 3 4 4 6 1 3 3 4 4 3 3 4 3 4 4 5 5 3 6 6 8 10
34 26 7 12 6 6 5 4 5 2 5 6 2 6 6 5 3 4 4 2 0 2 5 3 3 4 1 2 3 4 5 1 4 2 1 3 5 5 3 3 6 8 7 7 8
26 13 8 10 3 4 5 3 2 3 4 2 2 2 4 6 5 5 3 3 2 3 2 5 1 2 6 4 5 7 2 4 4 2 4 5 5 5 5 6 7 9 9 8 7
7 4 3 15 5 5 3 4 4 5 1 3 1 2 2 2 0 2 2 2 5 1 6 3 3 4 2 3 1 4 3 6 4 4 3 3 5 6 5 4 7 9 9 9 8
6 3 10 6 4 1 1 2 4 4 4 4 1 2 2 1 2 3 3 3 7 1 2 2 5 2 5 3 3 2 4 4 4 5 4 2 6 2 3 5 5 8 9 9 6
2 3 5 6 2 2 5 4 2 7 6 6 5 4 2 2 3 4 3 5 9 4 3 4 1 2 7 6 4 2 2 4 4 3 5 3 6 4 4 5 5 7 9 8 10
3 3 4 4 1 4 3 3 6 8 2 3 3 3 3 4 5 2 5 2 5 3 7 7 3 6 6 7 3 4 5 6 5 3 3 6 9 8 6 7 8 7 9 7 11
2 2 2 2 3 3 0 2 2 6 4 5 3 3 2 3 2 1 1 4 3 4 3 4 3 5 5 6 5 5 10 11 7 7 5 12 6 9 7 6 7 5 6 9 11
1 2 4 2 2 2 1 1 1 5 2 5 2 3 0 5 6 6 4 4 5 2 2 1 3 6 6 8 7 5 10 10 12 6 6 5 8 3 4 5 6 7 6 9 11
3 2 3 2 3 1 3 1 1 2 3 3 5 1 2 2 6 4 6 3 5 5 3 3 5 2 7 4 3 6 5 4 2 1 2 5 7 4 7 9 7 7 6 10 11
Wind_Direction
1 357 353 350 348 344 339 334 330 325 321 319 321 322 320 316 313 294 241 228 200 188 149 147 165 164 147 278 218 114 47 270 271 300 289 293 346 216 257 164 220 188 143 181 149
359 357 353 350 346 343 342 337 328 322 318 318 321 321 319 319 314 258 268 233 179 165 152 146 151 141 136 225 245 110 120 236 211 240 286 302 291 317 318 285 252 176 58 137 144
3 1 357 354 351 348 342 335 329 322 317 315 317 319 320 327 304 250 333 243 181 167 172 154 136 138 182 186 195 179 210 226 267 262 251 274 314 108 210 300 209 223 157 156 155
3 0 358 355 352 348 343 338 333 326 311 305 307 305 313 335 124 14 18 91 166 170 150 139 118 129 146 196 217 234 250 248 268 251 314 276 271 315 213 237 230 224 162 159 165
2 0 357 356 353 346 344 340 329 313 302 294 284 240 103 15 254 333 38 125 146 166 180 151 138 145 176 205 258 199 262 252 267 269 235 280 267 236 260 278 266 168 163 177 174
1 0 358 357 353 349 347 337 325 317 316 284 153 145 122 319 317 318 157 147 165 169 173 157 182 197 189 241 162 236 246 269 267 287 258 251 289 132 292 292 248 165 179 182 179
1 359 359 357 354 350 348 338 344 22 75 116 135 122 104 226 332 46 172 183 175 186 152 196 207 106 145 315 315 305 332 340 337 14 315 313 321 288 320 331 325 189 182 183 185
0 359 358 358 355 351 349 6 44 60 96 115 127 128 239 241 300 249 201 218 209 207 204 170 176 105 111 307 5 22 41 359 296 11 337 64 287 298 352 344 351 194 184 188 192
358 357 358 359 355 351 350 35 45 67 94 115 74 90 276 289 284 302 215 194 172 176 189 83 93 79 34 70 2 7 269 269 318 231 4 80 287 13 0 9 10 324 203 195 196
356 355 356 357 355 359 0 51 44 45 66 1 290 25 310 352 315 324 220 208 15 41 59 56 49 62 34 72 245 258 304 300 253 300 1 359 342 358 8 24 4 5 354 243 217
354 354 354 355 353 8 14 343 12 354 33 239 252 266 291 319 298 202 160 130 149 60 118 13 70 230 233 200 201 260 238 231 269 264 256 258 91 348 2 22 11 6 9 359 332
353 352 352 352 352 7 37 80 128 262 315 253 248 270 266 273 311 269 154 120 135 160 107 27 243 248 252 162 200 218 262 290 283 307 134 343 52 301 22 27 9 345 355 344 333
350 349 348 351 352 6 33 84 351 151 69 299 213 209 219 150 211 253 137 129 154 135 177 161 254 318 185 338 146 156 182 241 225 352 11 335 325 28 326 344 14 349 327 329 325
347 347 346 346 3 345 332 340 339 175 48 293 332 294 137 214 280 213 186 137 110 207 151 211 273 342 65 354 102 151 212 243 264 106 220 49 261 301 293 295 356 351 346 338 332
343 344 341 344 314 310 318 329 333 125 60 320 305 143 118 152 302 347 167 73 176 181 103 258 148 98 77 307 277 251 317 287 273 142 91 346 76 269 5 343 340 341 345 333 330
339 342 336 338 315 305 330 331 112 43 180 358 351 352 15 322 280 337 135 55 99 133 25 244 320 60 309 355 45 312 3 32 47 88 53 260 122 283 262 259 299 320 336 331 336
336 338 332 325 300 326 334 40 40 116 337 334 331 20 11 320 339 344 128 29 84 22 358 4 348 322 41 30 9 39 50 352 9 13 221 177 83 236 233 228 290 319 324 323 326
336 335 333 339 311 321 347 49 107 332 303 321 2 354 63 3 2 349 57 67 30 82 82 73 331 4 343 170 255 24 127 146 258 207 259 319 234 240 207 118 352 306 309 320 321
337 338 357 350 351 355 67 68 190 337 325 339 16 55 355 355 10 50 41 101 125 159 118 87 304 316 91 341 111 317 39 197 105 28 35 277 294 316 35 247 332 313 331 320 313
336 331 347 352 358 14 73 217 246 222 325 9 81 125 46 339 39 33 18 328 38 54 83 195 324 360 302 38 27 96 184 25 9 3 307 299 285 250 291 307 312 314 318 316 312
348 6 296 344 343 46 116 233 279 263 302 184 208 75 65 25 85 27 342 82 8 26 82 125 108 288 354 36 180 4 24 57 114 131 192 292 262 219 257 309 299 291 295 303 307
4 349 348 357 42 48 107 218 289 309 355 357 105 112 129 192 2 48 76 352 337 227 75 46 128 173 241 281 287 251 154 122 118 273 231 193 266 287 240 276 291 295 302 302 293
4 266 342 352 118 329 310 302 299 352 0 4 349 30 60 90 46 36 16 328 15 58 140 185 23 32 347 352 349 247 220 119 100 80 217 179 264 232 264 310 301 295 301 307 308
359 350 325 40 20 114 20 340 331 344 272 3 293 58 88 56 19 125 360 315 2 83 59 85 121 163 193 215 173 271 230 223 156 154 218 226 276 291 284 287 291 302 298 312 307
44 292 196 316 347 6 313 335 20 353 335 353 0 47 148 119 69 101 327 321 344 349 52 98 210 193 246 234 219 238 258 267 199 217 197 282 225 270 281 279 284 278 292 303 303
56 23 351 286 315 293 356 322 77 317 253 330 69 318 34 166 184 196 191 205 241 292 143 34 237 184 237 238 251 235 243 244 250 238 238 261 279 237 295 295 291 276 294 300 304
348 325 117 290 331 69 212 143 97 338 272 241 304 312 257 286 219 216 201 196 220 218 200 172 165 142 267 243 323 305 240 238 247 111 177 244 250 342 320 322 314 321 316 305 302
Height
794 790 787 783 779 775 772 768 765 763 760 757 756 754 752 750 749 748 745 739 739 742 745 748 752 753 755 757 754 755 785 795 779 774 760 743 748 732 724 732 729 728 732 730 737
795 790 786 781 777 773 768 765 762 759 756 755 753 752 750 748 746 743 736 736 738 740 743 746 752 753 760 758 758 768 791 778 761 756 756 745 744 739 736 736 734 729 728 731 736
794 789 785 780 774 770 765 761 758 755 753 752 751 750 748 747 747 736 733 733 737 740 743 745 746 750 759 757 759 765 777 760 754 749 747 746 740 731 736 741 732 728 728 732 735
793 788 783 778 772 766 761 757 755 752 751 749 748 748 747 747 758 734 732 730 735 741 743 744 747 756 763 766 755 768 757 755 749 740 745 745 735 739 734 725 711 710 716 726 733
793 788 782 776 770 763 757 754 751 749 746 745 745 746 747 749 743 734 734 735 737 741 742 744 750 755 763 759 757 764 754 748 743 743 744 738 739 739 729 715 708 708 715 719 724
791 785 779 773 766 759 754 751 746 743 742 742 744 745 747 751 734 734 735 737 738 740 741 742 745 745 752 756 760 751 752 751 743 741 739 741 735 734 721 712 710 712 715 719 721
790 784 777 770 763 757 752 746 742 741 742 743 744 745 747 742 733 733 735 737 738 739 741 741 741 745 748 757 749 751 761 753 744 740 740 736 744 737 723 718 714 713 718 720 723
789 782 775 768 760 755 750 745 743 742 743 744 745 746 747 733 733 733 734 737 738 739 740 740 741 744 750 748 758 768 770 782 749 742 736 739 768 733 727 723 719 716 717 720 722
787 781 774 766 759 754 749 746 745 745 745 746 747 747 743 733 733 731 733 735 736 739 739 741 742 753 756 773 788 786 791 783 770 744 745 749 762 748 739 732 732 722 719 720 724
786 779 773 765 759 755 749 747 747 746 747 747 748 751 734 736 731 732 732 735 737 737 743 747 759 770 779 786 809 793 788 781 783 758 753 760 759 756 748 739 740 735 728 723 721
786 779 772 765 759 756 750 749 753 752 748 748 748 746 738 734 731 730 731 735 738 744 763 758 775 785 772 774 771 774 781 787 772 755 756 760 770 763 753 748 743 738 737 735 731
785 778 772 765 759 758 755 758 765 765 765 743 743 742 736 736 741 731 731 740 746 764 759 773 781 761 758 766 773 779 783 785 767 753 756 758 765 760 756 754 751 745 739 735 732
785 779 772 766 760 759 760 762 762 760 770 749 739 738 733 735 739 735 730 737 748 763 765 777 763 753 757 761 769 778 783 779 777 763 757 762 770 763 756 753 750 747 742 736 733
784 777 771 765 763 761 760 760 759 758 784 754 741 733 732 731 739 725 726 734 747 758 770 769 755 756 761 763 765 777 762 765 765 780 792 770 806 771 769 761 755 752 745 739 730
783 777 771 765 765 763 762 759 757 758 804 746 740 727 729 739 735 729 725 730 750 754 761 767 760 762 767 763 756 769 756 761 760 779 782 783 801 783 769 765 755 751 746 741 736
780 776 769 765 763 762 759 757 757 786 793 755 742 746 743 738 737 729 730 728 735 751 756 760 747 753 756 752 753 755 760 776 787 795 812 787 796 795 778 765 760 753 748 743 738
777 773 766 764 763 760 758 758 789 798 760 767 759 754 756 756 748 743 746 759 767 776 784 771 767 757 754 766 761 770 791 818 813 821 816 792 798 786 761 756 756 756 750 744 740
776 770 764 763 761 760 758 773 788 773 769 754 758 757 764 763 756 757 759 773 764 773 796 796 797 770 760 765 774 778 789 817 818 828 811 791 795 775 755 753 753 752 750 745 742
774 767 764 763 761 760 768 796 788 775 767 766 763 776 776 766 763 763 770 773 766 765 788 797 789 766 761 761 767 778 800 788 810 819 821 805 781 761 755 756 756 754 751 748 744
777 771 767 762 762 761 781 793 781 767 762 761 774 770 782 778 774 774 774 763 763 759 762 780 797 776 768 762 767 778 779 804 817 822 821 811 802 787 765 765 761 756 753 748 743
779 778 766 764 763 772 794 791 776 760 759 764 768 772 776 777 777 777 776 764 760 760 765 778 791 788 776 784 787 790 796 805 816 824 828 833 810 772 766 765 764 758 752 749 745
786 790 767 763 781 800 791 780 770 763 759 761 758 764 770 772 774 775 779 772 763 759 772 780 801 806 789 777 778 779 785 803 824 820 823 824 810 760 761 762 761 756 751 745 743
799 794 768 766 793 796 787 779 771 769 769 768 767 762 763 773 782 779 778 766 763 767 772 776 802 819 809 795 781 783 781 793 811 819 816 822 801 760 763 761 758 755 748 745 739
801 797 782 778 790 788 790 786 781 770 767 769 769 766 769 780 783 782 782 770 767 768 770 775 804 801 818 801 790 793 787 785 797 818 807 806 781 768 763 762 757 754 747 744 738
804 801 799 799 793 793 791 788 786 786 773 771 769 770 772 784 785 785 780 777 770 770 772 780 795 797 792 789 787 785 785 778 791 788 790 772 784 766 762 759 754 750 746 742 738
805 805 803 801 797 792 794 794 789 787 782 779 776 772 772 780 778 789 781 783 779 773 774 786 795 795 792 781 782 785 776 774 772 769 776 772 773 756 754 753 751 749 747 743 738
805 804 804 801 799 795 795 790 787 787 777 773 776 775 774 772 769 765 769 770 769 773 783 788 793 802 795 782 782 790 770 763 762 762 766 775 762 758 756 754 751 749 747 742 738